{"data":{"norad_id":67041,"epoch":"2026-09-20T18:29:40.073280Z","epoch_age_seconds":58294,"freshness":"FRESH","line1":"1 67041U 25294M   26263.77060270  .00012326  00000+0  45699-3 0  9997","line2":"2 67041  43.0027  16.4195 0001590 283.6611  76.4064 15.27557989 44636","mean_motion":15.27557989,"eccentricity":0.000159,"inclination_deg":43.0027,"raan_deg":16.4195,"arg_perigee_deg":283.6611,"mean_anomaly_deg":76.4064,"bstar":0.00045699,"rev_number":4463,"period_min":94.268107028963,"perigee_km":482.02406661458,"apogee_km":484.20594475239,"semimajor_km":6861.2520056835,"source":"CELESTRAK","updated_at":"2026-09-21T09:00:36.093259Z"}}